Home   Weather   Hopedale   Past weeks

Flag for Canada Past Weather in Hopedale, Newfoundland and Labrador, Canada — Yesterday and Last 2 Weeks

Now
29 °F

Chilly.


Feels Like: 29 °F
Forecast: 25 / 33 °F
Wind: 1 mph from North

Location: Hopedale

Current Time: Apr 23, 2017 at 5:16:25 am

Latest Report: Apr 23, 2017 at 4:00 am


Visibility: N/A

Pressure: 30.06 "Hg

Humidity: 91%

Dew Point: 27 °F

Location of HopedaleLocation

Past Weather in Hopedale — Graph

°F

Hopedale Temperature Yesterday

Maximum temperature yesterday: 32 °F (at 4:00 pm)
Minimum temperature yesterday: 21 °F (at 5:00 am)
Average temperature yesterday: 27 °F

High & Low Weather Summary for the Past Weeks

 TemperatureHumidityPressure
High44 °F (Apr 10, 5:00 pm)100% (Apr 8, 4:00 am)30.55 "Hg (Apr 8, 4:00 am)
Low-1 °F (Apr 17, 6:00 am)35% (Apr 19, 5:00 pm)29.34 "Hg (Apr 8, 12:00 pm)
Average23 °F77%30.13 "Hg
* Reported Apr 8 4:00 am — Apr 23 4:00 am, Hopedale, Weather by CustomWeather, © 2017

Note: Actual official high and low records may vary slightly from our data, if they occured in-between our weather recording intervals... More about our weather records

Advertising

Hopedale Weather History for the Previous 24 Hours

Scroll right to see more
 ConditionsComfort  
Time TempWeatherWind HumidityBarometerVisibility
4:00 am
Sun, Apr 23
29 °FChilly.1 mph91%30.06 "HgN/A
3:00 am30 °FChilly.2 mph98%30.08 "HgN/A
2:00 am30 °FChilly.1 mph92%30.11 "HgN/A
1:00 am30 °FChilly.1 mph90%30.13 "HgN/A
12:00 am30 °FChilly.2 mph88%30.16 "HgN/A
11:00 pm
Sat, Apr 22
30 °FChilly.2 mph90%30.18 "HgN/A
10:00 pm30 °FChilly.2 mph98%30.21 "HgN/A
9:00 pm30 °FChilly.3 mph96%30.22 "HgN/A
8:00 pm31 °FChilly.2 mph89%30.23 "HgN/A
7:00 pm32 °FChilly.2 mph91%30.24 "HgN/A
6:00 pm31 °FChilly.3 mph88%30.25 "HgN/A
5:00 pm31 °FChilly.2 mph88%30.27 "HgN/A
4:00 pm32 °FChilly.1 mph86%30.28 "HgN/A
3:00 pm31 °FChilly.1 mph84%30.30 "HgN/A
2:00 pm31 °FChilly.2 mph82%30.33 "HgN/A
1:00 pm30 °FChilly.2 mph84%30.36 "HgN/A
12:00 pm27 °FChilly.2 mph92%30.39 "HgN/A
11:00 am25 °FChilly.2 mph96%30.41 "HgN/A
10:00 am26 °FChilly.2 mph92%30.43 "HgN/A
9:00 am23 °FCold.2 mph100%30.45 "HgN/A
8:00 am21 °FCold.3 mph98%30.46 "HgN/A
7:00 am22 °FCold.2 mph99%30.47 "HgN/A
6:00 am22 °FCold.2 mph100%30.47 "HgN/A
5:00 am21 °FCold.2 mph100%30.46 "HgN/A
Weather by CustomWeather, © 2017

See weather overviewHow to use our weather pages